CAPE
2434 2312 1952 1858 1912 1749 1345 1761 1550 1333 1294 1037 765 558 320 280 342 459 611 769 763 698 594 432 347 145 196 18 6 9 0 0 0 0 2 16 49 138 121 10 0 0 0
2484 2543 2086 1813 2388 1914 1696 1393 1497 1278 1129 904 585 461 384 418 610 837 859 999 861 715 599 522 276 88 221 75 5 27 0 0 0 0 4 33 91 26 29 1 1 0 0
2590 2645 2558 2110 1829 2349 2182 1819 1765 1328 1205 875 552 473 585 738 786 912 1009 1008 810 709 603 478 358 129 155 51 6 9 6 0 0 4 1 1 4 1 1 1 1 0 0
1844 955 1092 8 147 30 21 27 167 587 646 646 552 481 613 911 1132 1093 1037 834 762 706 559 426 358 177 153 83 15 54 26 9 5 41 4 10 0 1 0 0 1 0 1
1 0 2 3 4 0 0 0 0 0 0 0 4 247 813 878 1157 1101 1068 847 741 661 542 415 309 248 233 193 163 74 89 113 68 78 34 5 1 1 0 0 1 0 0
27 6 1 3 20 1 4 1 2 1 0 0 1 0 86 1047 1034 943 796 692 617 520 466 419 362 297 211 192 314 347 245 265 232 213 175 184 32 1 1 0 0 0 0
56 5 1 2 5 0 3 4 3 0 0 0 0 0 9 147 724 525 494 537 493 406 323 271 315 385 319 237 113 104 149 182 295 156 61 4 0 0 0 1 0 0 0
113 15 0 0 0 0 0 0 0 0 0 0 0 0 3 44 371 85 213 469 424 328 309 257 304 358 272 165 109 67 25 0 0 0 0 0 0 0 0 0 0 0 0
19 20 65 0 0 0 0 0 0 0 0 0 1 207 131 263 150 0 0 86 209 207 305 269 280 280 138 97 81 55 31 14 0 0 0 0 0 0 0 0 1 1 1
0 0 0 0 0 0 0 0 0 6 66 83 4 0 0 15 26 0 0 0 13 0 18 86 97 137 127 65 74 55 44 33 0 0 0 0 0 0 0 0 0 0 0
0 0 0 0 0 0 0 0 0 0 0 12 1 0 0 0 1 9 0 1 26 48 53 75 75 45 42 0 0 43 82 42 0 0 0 0 0 0 1 0 0 0 0
0 0 0 0 0 0 0 0 0 0 0 0 0 3 2 1 1 1 1 0 1 1 33 38 0 0 0 0 0 0 0 0 3 2 2 0 0 0 0 0 0 0 0
0 0 0 0 0 0 0 0 0 0 0 0 0 3 3 4 0 1 0 1 0 0 1 1 1 1 0 0 0 0 0 0 0 15 23 11 0 0 0 0 1 0 0
0 0 0 0 0 0 0 0 0 0 0 0 0 0 0 0 0 0 0 0 0 0 0 0 0 0 0 0 0 0 0 0 0 2 4 14 0 0 1 0 1 1 1
0 0 0 0 0 0 0 0 0 0 0 0 0 0 0 0 0 0 0 0 0 0 0 0 0 0 0 0 0 0 0 0 0 0 0 1 3 7 8 0 0 1 0
0 0 0 0 0 0 0 0 0 0 0 0 0 0 0 0 1 1 1 1 1 1 0 0 0 0 0 0 0 0 0 0 0 1 1 1 1 2 18 27 4 1 1
0 0 0 0 0 0 0 0 0 0 0 0 0 0 0 1 1 0 0 1 1 0 0 0 0 0 0 0 0 1 0 0 0 1 1 1 1 2 1 2 50 2 2
0 0 0 0 0 0 0 0 0 0 0 0 0 0 1 1 1 0 0 0 0 1 1 3 1 2 1 1 1 2 24 4 1 1 1 1 1 1 0 0 1 4 3
0 0 0 0 0 0 0 0 0 0 0 0 0 0 1 0 1 0 1 0 1 1 1 1 2 1 1 1 1 1 2 1 3 2 0 1 1 1 1 0 1 1 0
0 0 0 0 0 0 0 0 0 0 0 0 0 0 0 0 0 0 0 0 0 0 0 0 3 1 1 1 1 0 0 0 0 0 0 0 0 0 0 0 0 0 1
0 0 0 0 0 0 0 0 0 13 15 18 0 0 0 0 0 0 0 0 0 0 0 0 0 0 1 1 0 0 0 1 0 0 0 0 0 0 0 0 0 0 1
0 0 0 0 0 0 0 0 0 0 7 0 0 0 0 0 0 0 0 0 0 0 0 0 0 0 0 0 0 0 0 0 0 0 1 1 1 0 1 1 1 1 0
0 0 0 0 0 0 0 0 0 0 0 0 0 0 0 0 0 0 0 0 0 0 0 0 0 0 0 0 0 0 0 0 0 0 0 0 0 0 0 0 0 0 0
0 0 0 0 0 0 0 0 0 0 0 0 0 0 0 0 0 0 0 0 0 0 0 0 0 0 0 0 0 0 0 0 0 0 0 0 0 0 0 0 0 0 0
0 0 0 0 0 0 0 0 0 0 0 0 0 0 0 0 0 0 0 0 0 0 0 0 0 0 0 0 0 0 0 0 0 0 0 0 0 0 0 0 0 0 0
0 0 0 0 0 0 1 3 3 0 0 0 0 0 0 0 1 3 1 0 0 0 0 0 0 0 0 0 0 0 0 0 0 0 0 0 0 2 1 0 0 0 0
CIN
-8 -23 -75 -90 -105 -168 -193 -145 -204 -189 -185 -220 -246 -265 -283 -288 -240 -160 -104 -53 -33 -43 -56 -62 -65 -122 -96 -160 -73 -126 0 0 0 0 -111 -116 -66 -39 -55 -97 0 0 0
-20 -4 -23 -95 -44 -84 -189 -202 -216 -222 -222 -241 -268 -287 -289 -253 -176 -109 -84 -38 -40 -40 -45 -42 -95 -146 -74 -147 -79 -135 0 0 0 0 -93 -75 -77 -99 -78 0 0 0 0
-11 -14 -18 -86 -90 -60 -62 -82 -112 -157 -191 -235 -289 -273 -227 -192 -158 -117 -68 -64 -75 -58 -43 -56 -86 -138 -136 -167 -37 -158 -98 0 0 -131 -73 -66 -82 0 0 0 0 0 0
-47 -292 -123 -308 -204 -290 -557 -617 -469 -236 -230 -206 -246 -285 -228 -147 -101 -110 -98 -122 -128 -94 -83 -90 -101 -143 -166 -179 -86 -157 -153 -51 -68 -62 -144 -61 0 0 0 0 0 0 0
0 0 0 0 0 0 0 0 0 0 0 0 -97 -158 -120 -147 -116 -128 -134 -127 -150 -126 -108 -131 -125 -152 -147 -179 -170 -167 -129 -73 -62 -53 -77 -158 0 0 0 0 0 0 0
-440 -574 0 0 -286 0 0 0 0 0 0 0 -5 -7 -69 -53 -81 -123 -152 -136 -132 -139 -138 -149 -149 -165 -173 -167 -117 -107 -112 -77 -50 -30 -32 -15 -25 0 0 0 0 0 0
-374 -236 0 -329 -419 0 -55 -66 0 0 0 0 0 0 -217 -43 -53 -132 -142 -127 -122 -149 -182 -173 -165 -126 -143 -133 -214 -105 -154 -119 -78 -114 -95 -31 0 0 0 0 0 0 0
-231 -318 0 0 0 0 0 0 0 0 0 0 0 0 -62 -209 -43 -222 -218 -115 -129 -158 -180 -158 -158 -125 -162 -187 -213 -201 -185 0 0 0 0 0 0 0 0 0 0 0 0
-346 -299 -149 0 0 0 0 0 0 0 0 0 0 -100 -86 -202 -96 0 0 -242 -185 -154 -160 -121 -117 -109 -165 -198 -216 -200 -201 -224 0 0 0 0 0 0 0 0 0 0 0
-43 0 0 0 0 0 0 0 0 -217 -166 -181 -84 0 0 -200 -243 0 0 0 -208 0 -296 -212 -170 -122 -113 -200 -221 -244 -180 -215 0 0 0 0 0 0 0 0 0 0 0
0 0 0 0 0 0 0 0 0 0 0 -60 0 0 0 0 -178 -345 0 0 -178 -206 -195 -173 -158 -124 -96 0 0 -225 -165 -138 0 0 0 0 0 0 0 0 0 0 0
0 0 0 0 0 0 0 0 0 0 0 0 0 0 0 0 0 -91 0 0 0 0 -123 -147 -53 0 0 0 0 0 0 0 -101 -80 -90 0 0 0 0 0 0 0 0
0 0 0 0 0 0 0 0 0 0 0 0 0 0 0 0 0 0 0 0 0 0 0 0 0 0 0 0 0 0 0 0 0 -126 -82 -117 0 0 0 0 0 0 0
0 0 0 0 0 0 0 0 0 0 0 0 0 0 0 0 0 0 0 0 0 0 0 0 0 0 0 0 0 0 0 0 0 -115 -97 -85 0 0 0 0 0 0 0
0 0 0 0 0 0 0 0 0 0 0 0 0 0 0 0 0 0 0 0 0 0 0 0 0 0 0 0 0 0 0 0 0 0 0 0 0 -1 -3 -3 0 0 0
0 0 0 0 0 0 0 0 0 0 0 0 0 0 0 0 0 0 0 0 0 0 0 0 0 0 0 0 0 0 0 0 0 0 0 0 0 0 0 0 -10 -5 0
0 0 0 0 0 0 0 0 0 0 0 0 0 0 0 0 0 0 0 0 0 0 0 0 0 0 0 0 0 -74 -3 0 0 0 0 0 0 -7 0 0 0 -2 0
0 0 0 0 0 0 0 0 0 0 0 0 0 0 0 0 0 0 0 0 0 0 0 0 0 0 0 0 0 -16 -38 -44 0 0 0 0 0 0 0 -2 0 -208 -43
0 0 0 0 0 0 0 0 0 0 0 0 0 0 0 0 0 0 0 0 0 0 0 0 0 0 0 0 0 0 -3 -29 -40 -46 0 0 0 0 0 0 0 0 0
0 0 0 0 0 0 0 0 0 0 0 0 0 0 0 0 0 0 0 0 -2 0 0 0 -1 0 0 0 0 0 0 0 0 0 0 0 0 0 0 0 0 0 0
0 0 0 0 0 0 0 0 -23 -139 -165 -146 0 0 0 0 0 0 0 0 0 0 0 0 -1 0 0 0 0 0 0 0 0 0 0 0 0 0 0 0 0 0 0
0 0 0 0 0 0 0 0 0 0 -112 0 0 0 0 0 0 0 0 0 0 0 0 0 0 0 0 0 0 0 0 0 0 0 0 0 0 0 0 0 0 0 0
0 0 0 0 0 0 0 0 0 0 0 0 0 0 0 0 0 0 0 0 0 0 0 0 0 0 0 0 0 0 0 0 0 0 0 0 0 0 0 0 0 0 0
0 0 0 0 0 0 0 0 0 0 0 0 0 0 0 0 0 0 0 0 0 0 0 0 0 0 0 0 0 0 0 0 0 0 0 0 0 0 0 0 0 0 0
0 0 0 0 0 0 0 0 0 0 0 0 0 0 0 0 0 0 0 0 0 0 0 0 0 0 0 0 0 0 0 0 0 0 0 0 0 0 0 0 0 0 0
0 0 0 0 0 0 -37 -130 -132 -31 0 0 0 0 0 -3 -45 -107 -63 -6 0 0 0 0 0 0 0 0 0 0 0 0 0 0 0 0 0 -79 -51 0 0 0 0
Wind_Speed
14 14 14 12 12 12 11 8 9 10 11 11 11 10 8 9 9 9 8 7 8 7 5 6 7 4 4 4 3 3 4 4 4 3 2 3 3 6 5 4 5 5 4
15 16 14 14 10 14 15 14 11 10 9 10 10 10 9 8 8 9 9 8 9 7 7 6 7 5 6 5 5 5 4 4 3 5 4 4 5 6 4 4 4 3 4
13 15 16 15 16 16 14 8 6 8 7 7 8 9 9 9 9 8 9 9 8 7 8 8 7 6 6 4 5 6 5 4 4 3 4 2 2 2 3 1 3 3 3
6 3 3 7 6 6 6 7 8 8 5 2 4 7 7 7 8 9 9 8 7 6 7 7 7 7 7 7 6 7 5 4 4 4 3 2 2 1 2 3 3 3 3
11 11 11 9 4 3 5 6 4 6 8 11 12 8 6 8 8 10 9 8 7 6 6 6 7 8 12 11 7 6 7 5 4 4 3 3 3 3 5 3 4 3 4
5 9 10 11 15 12 6 8 7 6 6 7 5 6 13 7 11 13 9 6 6 7 7 7 6 10 10 13 13 12 11 9 8 5 4 5 5 3 3 4 3 3 4
5 6 4 6 10 12 8 7 6 9 9 5 9 7 12 19 12 14 14 7 7 7 7 6 6 5 8 6 11 11 11 13 9 10 6 7 6 7 5 4 4 4 5
4 4 1 4 5 5 6 2 6 4 5 5 7 11 24 17 17 13 13 8 8 9 8 7 6 7 7 7 6 6 8 8 10 6 8 7 6 7 10 8 8 5 1
9 9 6 2 0 7 3 4 5 4 2 5 9 13 11 7 9 10 6 7 6 6 6 6 7 8 9 11 6 7 7 7 6 9 8 8 9 12 10 6 4 4 3
10 7 7 8 9 6 2 2 5 3 5 5 3 5 7 6 4 4 4 3 1 2 4 5 8 7 9 11 10 9 9 10 9 4 5 6 8 8 14 9 7 6 3
8 7 8 7 6 6 5 3 3 3 3 3 2 3 6 5 3 8 7 1 4 4 3 3 4 5 8 9 11 7 9 6 8 7 6 4 3 4 6 7 8 8 7
6 5 6 4 4 3 4 4 5 4 3 3 2 4 5 5 1 7 10 10 10 3 3 2 3 1 4 3 5 11 8 2 4 5 5 6 7 7 8 10 10 9 6
5 5 5 5 5 5 5 5 4 5 4 3 4 5 5 6 5 8 6 4 6 3 4 6 7 8 9 7 10 11 7 4 4 4 7 7 8 9 8 6 9 9 7
3 2 3 4 6 5 3 3 4 4 4 4 5 6 5 3 3 3 2 1 5 6 5 3 3 6 8 7 5 6 4 3 4 5 4 4 3 4 8 8 8 8 8
4 4 5 4 5 5 4 2 2 2 2 3 2 4 5 4 1 3 2 2 3 3 4 2 2 2 3 4 3 5 4 4 4 3 4 6 6 6 9 8 9 8 9
5 4 3 4 4 3 2 4 4 4 3 5 6 4 4 8 6 5 5 6 6 6 2 1 2 3 4 4 5 5 4 4 5 4 5 7 7 7 8 8 10 10 10
3 4 4 4 2 1 1 2 3 4 3 4 2 6 9 5 5 7 6 4 7 6 1 2 4 3 4 5 5 6 5 5 5 6 6 6 6 6 6 10 7 9 8
4 6 3 3 3 3 2 3 3 2 2 2 6 5 7 6 3 4 7 2 3 2 2 3 4 5 4 4 4 4 4 5 4 5 4 4 4 4 3 3 2 1 2
4 5 5 4 2 4 3 4 3 3 3 4 2 4 6 6 2 3 4 3 3 3 3 3 2 3 3 3 3 5 6 4 3 3 3 3 2 2 3 3 3 3 4
4 8 6 2 3 3 4 4 4 2 2 1 3 3 4 4 2 1 2 2 3 3 3 3 3 3 3 3 4 3 2 2 3 2 2 1 1 2 2 3 3 3 2
4 4 6 3 3 2 3 4 3 2 3 4 3 3 5 4 3 2 1 1 2 2 3 3 3 3 3 3 3 4 4 3 3 3 2 2 2 2 2 3 4 4 5
3 3 3 1 2 3 2 2 2 3 3 3 2 2 7 4 4 2 1 0 2 2 3 2 3 3 2 3 3 4 3 3 3 4 4 3 3 3 3 5 5 5 5
3 3 2 1 1 2 3 2 2 3 4 2 4 3 3 3 3 4 4 3 2 3 2 2 1 2 3 3 3 3 3 3 3 2 3 3 4 4 3 4 5 4 4
2 2 3 3 2 2 1 1 3 3 2 3 1 4 4 4 5 5 5 4 2 3 2 1 3 2 2 3 3 3 4 4 2 2 2 2 2 4 4 3 3 4 3
3 4 4 5 5 5 4 3 2 2 2 1 1 2 4 4 4 5 5 4 4 4 4 1 0 1 1 3 0 1 1 3 2 3 1 2 3 4 3 3 2 2 2
3 4 2 3 2 4 5 5 5 3 4 3 3 3 5 6 5 4 4 5 4 4 5 4 5 6 6 4 4 4 2 1 2 3 3 4 4 3 3 3 5 3 4
Wind_Direction
216 205 205 207 204 192 197 197 191 190 189 181 183 181 183 190 186 191 201 198 206 213 203 198 227 217 204 183 184 192 190 154 165 262 238 202 213 229 213 201 175 164 193
211 199 202 193 198 206 198 198 190 189 187 180 179 179 183 194 192 193 197 198 202 210 216 213 231 197 206 178 175 192 190 191 164 191 220 206 203 216 205 186 178 167 187
219 198 198 196 201 209 211 184 167 190 193 181 171 180 184 188 190 195 198 199 201 206 214 209 218 188 198 193 180 194 201 192 208 175 227 114 189 152 141 119 173 191 199
221 25 85 60 82 60 65 64 84 74 86 327 218 181 187 184 195 196 199 197 193 209 220 210 204 194 198 198 197 197 191 194 187 200 191 171 173 177 146 172 186 197 200
104 97 90 64 5 62 80 105 86 97 95 89 58 345 221 188 203 202 195 201 188 201 222 210 212 198 200 197 187 195 186 200 203 199 192 182 178 178 197 181 199 176 217
103 123 121 101 82 341 273 173 147 179 137 139 90 11 319 241 210 197 187 189 195 195 210 231 219 209 207 209 208 192 189 186 198 179 207 223 216 208 170 200 188 205 247
103 96 100 126 155 162 208 257 222 202 164 197 146 116 291 286 239 200 191 184 197 195 204 205 223 226 203 214 228 225 212 207 195 188 187 194 189 196 159 183 204 201 230
55 73 95 126 118 92 101 38 321 345 296 223 201 169 208 235 244 202 198 199 204 203 198 205 207 229 215 198 203 226 234 222 221 209 199 201 203 181 178 184 203 210 267
32 32 9 3 212 101 126 221 222 192 249 263 242 188 190 152 231 259 190 187 193 209 201 208 204 224 231 212 198 212 238 241 238 232 211 201 201 183 177 139 176 152 207
39 22 29 26 26 41 338 288 272 239 276 226 104 90 134 137 172 113 90 338 214 253 244 232 239 228 221 204 201 200 220 232 227 220 246 245 217 196 180 189 170 197 177
40 20 23 16 17 24 348 330 262 249 76 27 119 153 136 142 156 103 132 104 275 238 268 276 246 237 260 216 206 202 213 229 224 208 218 221 198 172 190 206 195 188 194
23 21 36 4 30 15 41 349 354 5 106 95 58 42 51 39 288 185 195 193 194 246 251 255 294 249 91 82 201 237 215 196 228 209 214 215 205 205 202 206 205 210 217
15 354 354 352 21 25 31 20 36 42 58 76 115 107 71 64 53 56 111 212 133 73 277 236 243 273 288 300 261 250 224 198 220 218 231 228 220 216 205 203 210 212 214
39 3 358 4 358 357 12 35 50 44 56 64 72 108 117 103 96 106 72 93 126 158 239 317 320 283 256 244 246 260 239 224 216 235 238 242 223 205 204 200 206 207 207
47 13 8 10 15 339 340 12 59 65 114 96 90 123 129 132 148 141 139 74 31 345 333 339 298 276 244 238 223 220 203 204 224 218 239 248 247 237 226 209 205 197 208
21 3 343 351 342 339 357 360 28 41 85 104 131 108 50 72 169 181 134 118 127 173 147 30 295 245 243 246 243 246 223 215 224 215 230 252 250 251 251 240 210 203 208
346 325 330 347 332 328 11 30 350 320 214 207 199 102 81 111 22 28 18 81 105 140 305 250 233 251 264 250 239 233 234 216 212 212 227 226 240 246 253 240 230 214 191
335 326 312 291 288 284 279 280 225 241 301 300 201 172 144 147 137 53 358 25 22 23 328 1 356 357 336 325 315 275 264 254 220 233 221 225 223 233 203 181 220 146 134
351 323 314 297 292 298 323 300 287 279 241 221 153 100 125 126 54 352 344 86 44 18 357 350 330 325 317 301 294 291 285 279 257 237 235 224 229 206 194 187 190 156 115
339 319 330 355 344 22 354 3 0 345 327 163 122 143 130 146 128 76 56 54 57 30 324 329 323 298 307 322 315 304 337 8 338 -0 13 329 180 162 189 153 155 158 128
310 313 336 10 23 14 360 355 344 59 86 100 82 53 153 126 130 138 119 65 18 348 356 354 347 339 353 348 359 14 10 9 15 6 32 52 73 79 94 100 111 114 120
282 295 315 316 346 -0 57 93 76 73 110 120 109 50 121 122 144 145 130 190 291 297 306 318 352 358 6 11 18 20 33 18 16 26 25 18 64 74 93 98 101 100 98
302 350 13 315 4 21 27 25 29 38 44 87 148 146 147 152 169 171 181 187 259 301 299 263 288 352 355 13 46 31 18 11 18 43 91 73 58 35 22 73 97 102 109
303 285 266 264 183 200 121 344 346 19 38 60 67 185 185 188 191 197 204 191 217 275 272 277 254 255 355 4 25 32 1 346 10 79 66 64 90 121 113 92 91 113 123
320 291 214 210 201 201 190 198 226 279 312 291 125 182 179 186 206 213 204 204 219 225 246 216 159 76 101 167 128 51 36 339 323 323 175 175 170 163 157 131 142 152 123
304 13 303 255 196 205 202 206 206 198 217 218 221 217 201 202 213 215 229 248 210 212 217 186 186 193 199 202 201 208 223 303 305 324 263 216 204 214 209 189 180 174 167